This is the latest recevied weather packets stored in our database for station/object K7PMV-13. If no packets are shown the sender has not sent any weather packets the latest 10 day(s).
| Time | Temp. | Humidity | Pressure | Rain* | Wind** | Luminosity | Snow |
|---|---|---|---|---|---|---|---|
| 1777792476 | 25° C | 28% | 1006.8 hPa | 0 mm | - | 0 W/m² | - |
| 1777792161 | 25° C | 27% | 1006.8 hPa | 0 mm | - | 0 W/m² | - |
| 1777791825 | 25° C | 27% | 1006.7 hPa | 0 mm | - | 0 W/m² | - |
| 1777791511 | 25° C | 28% | 1006.7 hPa | 0 mm | - | 0 W/m² | - |
| 1777791196 | 25° C | 28% | 1006.5 hPa | 0 mm | - | 0 W/m² | - |
| 1777790881 | 25.56° C | 27% | 1006.5 hPa | 0 mm | - | 0 W/m² | - |
| 1777790565 | 25.56° C | 27% | 1006.5 hPa | 0 mm | - | 0 W/m² | - |
| 1777790247 | 25.56° C | 27% | 1006.5 hPa | 0 mm | - | 0 W/m² | - |
| 1777789933 | 25.56° C | 27% | 1006.5 hPa | 0 mm | - | 0 W/m² | - |
| 1777789618 | 26.11° C | 26% | 1006.5 hPa | 0 mm | - | 0 W/m² | - |
| 1777789296 | 26.11° C | 26% | 1006.5 hPa | 0 mm | - | 0 W/m² | - |
| 1777788978 | 26.11° C | 27% | 1006.5 hPa | 0 mm | - | 0 W/m² | - |
| 1777788293 | 26.11° C | 26% | 1006.5 hPa | 0 mm | - | 0 W/m² | - |
| 1777787975 | 26.11° C | 26% | 1006.5 hPa | 0 mm | - | 0 W/m² | - |
| 1777787660 | 26.11° C | 25% | 1006.6 hPa | 0 mm | - | 0 W/m² | - |
| 1777787342 | 26.67° C | 25% | 1006.5 hPa | 0 mm | - | 0 W/m² | - |
| 1777786427 | 26.11° C | 26% | 1006.4 hPa | 0 mm | - | 0 W/m² | - |
| 1777786124 | 26.11° C | 26% | 1006.5 hPa | 0 mm | - | 0 W/m² | - |
| 1777785818 | 25.56° C | 28% | 1006.6 hPa | 0 mm | - | 0 W/m² | - |
| 1777785516 | 25.56° C | 30% | 1006.6 hPa | 0 mm | - | 0 W/m² | - |
| 1777785213 | 25° C | 31% | 1006.5 hPa | 0 mm | - | 0 W/m² | - |
| 1777784910 | 25° C | 30% | 1006.4 hPa | 0 mm | - | 0 W/m² | - |
| 1777784607 | 25° C | 28% | 1006.4 hPa | 0 mm | - | 0 W/m² | - |
| 1777784298 | 25.56° C | 28% | 1006.2 hPa | 0 mm | - | 0 W/m² | - |
| 1777783995 | 25.56° C | 29% | 1006.4 hPa | 0 mm | - | 0 W/m² | - |
* Rain latest hour (hover to see other rain measurements)
** Current wind speed in m/s (hover to see current wind gust speed)